Time,TemperatureF,DewpointF,PressureIn,WindDirection,WindDirectionDegrees,WindSpeedMPH,WindSpeedGustMPH,Humidity,HourlyPrecipIn,Conditions,Clouds,dailyrainin,SoftwareType,DateUTC
2013-03-07 00:01:00,39.0,37.0,29.87,SSE,150,2.0,10.0,93,0.03,,,0.54,,2013-03-07 08:01:00,
2013-03-07 00:11:00,39.0,37.0,29.87,SSE,150,2.0,10.0,93,0.03,,,0.54,,2013-03-07 08:11:00,
2013-03-07 00:22:00,39.0,37.0,29.88,East,93,4.0,8.0,93,0.04,,,0.56,,2013-03-07 08:22:00,
2013-03-07 00:31:00,39.0,37.0,29.88,East,98,2.0,7.0,93,0.05,,,0.56,,2013-03-07 08:31:00,
2013-03-07 00:43:00,39.0,37.0,29.88,East,98,2.0,7.0,93,0.05,,,0.56,,2013-03-07 08:43:00,
2013-03-07 00:53:00,38.0,36.0,29.88,East,98,1.0,5.0,93,0.05,,,0.57,,2013-03-07 08:53:00,
2013-03-07 01:01:00,38.0,36.0,29.89,ESE,113,1.0,6.0,93,0.06,,,0.60,,2013-03-07 09:01:00,
2013-03-07 01:11:00,38.0,36.0,29.89,ESE,113,1.0,6.0,93,0.06,,,0.60,,2013-03-07 09:11:00,
2013-03-07 01:22:00,38.0,36.0,29.89,ENE,78,2.0,5.0,93,0.05,,,0.61,,2013-03-07 09:22:00,
2013-03-07 01:31:00,38.0,36.0,29.90,East,97,0.0,5.0,94,0.05,,,0.62,,2013-03-07 09:31:00,
2013-03-07 01:41:00,38.0,36.0,29.90,East,97,0.0,5.0,94,0.05,,,0.62,,2013-03-07 09:41:00,
2013-03-07 01:52:00,38.0,36.0,29.91,East,90,1.0,5.0,94,0.04,,,0.62,,2013-03-07 09:52:00,
2013-03-07 02:01:00,38.0,36.0,29.91,ENE,74,0.0,3.0,94,0.03,,,0.63,,2013-03-07 10:01:00,
2013-03-07 02:11:00,38.0,36.0,29.91,ENE,74,0.0,3.0,94,0.03,,,0.63,,2013-03-07 10:11:00,
2013-03-07 02:21:00,38.0,36.0,29.91,East,100,0.0,4.0,94,0.02,,,0.63,,2013-03-07 10:21:00,
2013-03-07 02:32:00,38.0,36.0,29.92,East,93,0.0,2.0,94,0.02,,,0.64,,2013-03-07 10:32:00,
2013-03-07 02:41:00,38.0,36.0,29.92,East,93,0.0,2.0,94,0.02,,,0.64,,2013-03-07 10:41:00,
2013-03-07 02:52:00,38.0,36.0,29.92,ENE,76,0.0,3.0,94,0.03,,,0.65,,2013-03-07 10:52:00,
2013-03-07 03:01:00,38.0,36.0,29.92,East,79,1.0,3.0,94,0.03,,,0.66,,2013-03-07 11:01:00,
2013-03-07 03:22:00,38.0,37.0,29.92,East,94,0.0,2.0,95,0.04,,,0.67,,2013-03-07 11:22:00,
2013-03-07 03:32:00,38.0,37.0,29.92,East,92,0.0,5.0,95,0.04,,,0.68,,2013-03-07 11:32:00,
2013-03-07 03:42:00,38.0,37.0,29.92,East,92,0.0,5.0,95,0.04,,,0.68,,2013-03-07 11:42:00,
2013-03-07 03:53:00,38.0,37.0,29.93,ENE,69,0.0,3.0,95,0.04,,,0.69,,2013-03-07 11:53:00,
2013-03-07 04:01:00,38.0,37.0,29.93,ENE,72,0.0,4.0,95,0.04,,,0.70,,2013-03-07 12:01:00,
2013-03-07 04:11:00,38.0,37.0,29.93,ENE,72,0.0,4.0,95,0.04,,,0.70,,2013-03-07 12:11:00,
2013-03-07 04:21:00,38.0,37.0,29.93,ENE,71,0.0,4.0,95,0.03,,,0.70,,2013-03-07 12:21:00,
2013-03-07 04:32:00,38.0,37.0,29.94,ENE,71,0.0,3.0,95,0.03,,,0.71,,2013-03-07 12:32:00,
2013-03-07 04:42:00,38.0,37.0,29.94,ENE,71,0.0,3.0,95,0.03,,,0.71,,2013-03-07 12:42:00,
2013-03-07 04:52:00,38.0,37.0,29.94,ESE,103,2.0,5.0,95,0.02,,,0.71,,2013-03-07 12:52:00,
2013-03-07 05:01:00,39.0,38.0,29.94,ENE,74,0.0,3.0,95,0.02,,,0.72,,2013-03-07 13:01:00,
2013-03-07 05:11:00,39.0,38.0,29.94,ENE,74,0.0,3.0,95,0.02,,,0.72,,2013-03-07 13:11:00,
2013-03-07 05:22:00,39.0,38.0,29.95,East,91,0.0,3.0,95,0.02,,,0.72,,2013-03-07 13:22:00,
2013-03-07 05:32:00,39.0,38.0,29.95,East,98,0.0,2.0,95,0.01,,,0.72,,2013-03-07 13:32:00,
2013-03-07 05:41:00,39.0,38.0,29.95,East,98,0.0,2.0,95,0.01,,,0.72,,2013-03-07 13:41:00,
2013-03-07 05:53:00,39.0,38.0,29.96,East,88,0.0,3.0,95,0.01,,,0.72,,2013-03-07 13:53:00,
2013-03-07 06:01:00,39.0,37.0,29.96,ESE,107,0.0,3.0,94,0.01,,,0.73,,2013-03-07 14:01:00,
2013-03-07 06:11:00,39.0,37.0,29.96,ESE,107,0.0,3.0,94,0.01,,,0.73,,2013-03-07 14:11:00,
2013-03-07 06:21:00,39.0,37.0,29.97,ESE,107,0.0,2.0,94,0.01,,,0.73,,2013-03-07 14:21:00,
2013-03-07 06:41:00,39.0,38.0,29.97,ENE,69,1.0,5.0,95,0.01,,,0.73,,2013-03-07 14:41:00,
2013-03-07 06:53:00,39.0,37.0,29.98,East,82,1.0,4.0,94,0.02,,,0.74,,2013-03-07 14:53:00,
2013-03-07 07:01:00,39.0,37.0,29.98,East,91,2.0,6.0,94,0.01,,,0.74,,2013-03-07 15:01:00,
2013-03-07 07:11:00,39.0,37.0,29.98,East,91,2.0,6.0,94,0.01,,,0.74,,2013-03-07 15:11:00,
2013-03-07 07:21:00,39.0,38.0,29.98,ENE,66,0.0,2.0,95,0.01,,,0.74,,2013-03-07 15:21:00,
2013-03-07 07:31:00,39.0,38.0,29.98,ENE,69,0.0,3.0,95,0.01,,,0.74,,2013-03-07 15:31:00,
2013-03-07 07:41:00,39.0,38.0,29.98,ENE,69,0.0,3.0,95,0.01,,,0.74,,2013-03-07 15:41:00,
2013-03-07 07:52:00,39.0,38.0,29.99,ENE,76,0.0,4.0,95,0.01,,,0.75,,2013-03-07 15:52:00,
2013-03-07 08:01:00,39.0,38.0,29.99,ESE,107,0.0,4.0,95,0.01,,,0.75,,2013-03-07 16:01:00,
2013-03-07 08:11:00,39.0,38.0,29.99,ESE,107,0.0,4.0,95,0.01,,,0.75,,2013-03-07 16:11:00,
2013-03-07 08:21:00,39.0,38.0,29.99,ENE,66,0.0,3.0,95,0.02,,,0.76,,2013-03-07 16:21:00,
2013-03-07 08:31:00,39.0,38.0,30.00,ENE,74,0.0,2.0,95,0.02,,,0.76,,2013-03-07 16:31:00,
2013-03-07 08:42:00,39.0,38.0,30.00,ENE,74,0.0,2.0,95,0.02,,,0.76,,2013-03-07 16:42:00,
2013-03-07 08:52:00,40.0,39.0,30.01,East,80,1.0,4.0,95,0.02,,,0.77,,2013-03-07 16:52:00,
2013-03-07 09:01:00,40.0,39.0,30.01,ENE,64,0.0,2.0,95,0.02,,,0.78,,2013-03-07 17:01:00,
2013-03-07 09:11:00,40.0,39.0,30.01,ENE,64,0.0,2.0,95,0.02,,,0.78,,2013-03-07 17:11:00,
2013-03-07 09:21:00,40.0,39.0,30.01,ENE,64,0.0,2.0,95,0.02,,,0.78,,2013-03-07 17:21:00,
2013-03-07 09:31:00,40.0,39.0,30.02,ENE,69,0.0,1.0,95,0.03,,,0.79,,2013-03-07 17:31:00,
2013-03-07 09:42:00,40.0,39.0,30.02,ENE,69,0.0,1.0,95,0.03,,,0.79,,2013-03-07 17:42:00,
2013-03-07 10:01:00,41.0,40.0,30.03,East,87,0.0,3.0,95,0.02,,,0.80,,2013-03-07 18:01:00,
2013-03-07 10:11:00,41.0,40.0,30.03,East,87,0.0,3.0,95,0.02,,,0.80,,2013-03-07 18:11:00,
2013-03-07 10:21:00,41.0,40.0,30.03,East,87,0.0,3.0,95,0.02,,,0.80,,2013-03-07 18:21:00,
2013-03-07 10:31:00,41.0,40.0,30.03,ENE,65,0.0,2.0,95,0.02,,,0.78,,2013-03-07 18:31:00,
2013-03-07 10:41:00,41.0,40.0,30.03,ENE,65,0.0,2.0,95,0.02,,,0.78,,2013-03-07 18:41:00,
2013-03-07 10:51:00,42.0,41.0,30.03,ENE,65,0.0,2.0,95,0.01,,,0.78,,2013-03-07 18:51:00,
2013-03-07 11:02:00,42.0,41.0,30.04,ENE,65,0.0,1.0,95,0.01,,,0.79,,2013-03-07 19:02:00,
2013-03-07 11:11:00,42.0,41.0,30.04,ENE,65,0.0,1.0,95,0.01,,,0.79,,2013-03-07 19:11:00,
2013-03-07 11:22:00,42.0,40.0,30.04,ENE,65,0.0,2.0,94,0.01,,,0.79,,2013-03-07 19:22:00,
2013-03-07 11:33:00,42.0,40.0,30.04,ENE,77,0.0,4.0,94,0.01,,,0.75,,2013-03-07 19:33:00,
2013-03-07 11:43:00,42.0,40.0,30.04,ENE,77,0.0,4.0,94,0.01,,,0.75,,2013-03-07 19:43:00,
2013-03-07 11:52:00,43.0,41.0,30.05,SSW,199,1.0,5.0,94,0.01,,,0.75,,2013-03-07 19:52:00,
2013-03-07 12:01:00,43.0,41.0,30.05,SE,128,1.0,4.0,93,0.00,,,0.75,,2013-03-07 20:01:00,
2013-03-07 12:12:00,43.0,41.0,30.05,SE,128,1.0,4.0,93,0.00,,,0.75,,2013-03-07 20:12:00,
2013-03-07 12:21:00,43.0,41.0,30.05,ESE,102,1.0,5.0,93,0.00,,,0.75,,2013-03-07 20:21:00,
2013-03-07 12:32:00,44.0,42.0,30.05,East,92,1.0,3.0,92,0.00,,,0.72,,2013-03-07 20:32:00,
2013-03-07 12:42:00,44.0,42.0,30.05,East,92,1.0,3.0,92,0.00,,,0.72,,2013-03-07 20:42:00,
2013-03-07 12:52:00,44.0,42.0,30.05,East,79,0.0,5.0,92,0.01,,,0.73,,2013-03-07 20:52:00,
2013-03-07 13:02:00,44.0,42.0,30.05,ENE,71,1.0,4.0,92,0.01,,,0.73,,2013-03-07 21:02:00,
2013-03-07 13:11:00,44.0,42.0,30.05,ENE,71,1.0,4.0,92,0.01,,,0.73,,2013-03-07 21:11:00,
2013-03-07 13:21:00,44.0,42.0,30.04,North,5,0.0,3.0,93,0.01,,,0.73,,2013-03-07 21:21:00,
2013-03-07 13:32:00,45.0,43.0,30.04,East,98,0.0,7.0,92,0.01,,,0.71,,2013-03-07 21:32:00,
2013-03-07 13:42:00,45.0,43.0,30.04,East,98,0.0,7.0,92,0.01,,,0.71,,2013-03-07 21:42:00,
2013-03-07 13:52:00,45.0,43.0,30.03,NE,36,1.0,4.0,92,0.00,,,0.71,,2013-03-07 21:52:00,
2013-03-07 14:01:00,46.0,43.0,30.03,NE,53,0.0,2.0,90,0.00,,,0.71,,2013-03-07 22:01:00,
2013-03-07 14:11:00,46.0,43.0,30.03,NE,53,0.0,2.0,90,0.00,,,0.71,,2013-03-07 22:11:00,
2013-03-07 14:21:00,46.0,43.0,30.03,NE,53,0.0,2.0,90,0.00,,,0.71,,2013-03-07 22:21:00,
2013-03-07 14:32:00,47.0,44.0,30.03,NE,53,0.0,1.0,90,0.00,,,0.68,,2013-03-07 22:32:00,
2013-03-07 14:41:00,47.0,44.0,30.03,NE,53,0.0,1.0,90,0.00,,,0.68,,2013-03-07 22:41:00,
2013-03-07 14:52:00,47.0,44.0,30.03,North,355,0.0,3.0,90,0.00,,,0.68,,2013-03-07 22:52:00,
2013-03-07 15:02:00,47.0,44.0,30.03,North,355,0.0,2.0,90,0.00,,,0.68,,2013-03-07 23:02:00,
2013-03-07 15:12:00,47.0,44.0,30.03,North,355,0.0,2.0,90,0.00,,,0.68,,2013-03-07 23:12:00,
2013-03-07 15:21:00,47.0,44.0,30.03,North,355,0.0,1.0,90,0.00,,,0.68,,2013-03-07 23:21:00,
2013-03-07 15:32:00,47.0,44.0,30.03,North,355,0.0,2.0,90,0.00,,,0.61,,2013-03-07 23:32:00,
2013-03-07 15:42:00,47.0,44.0,30.03,North,355,0.0,2.0,90,0.00,,,0.61,,2013-03-07 23:42:00,
2013-03-07 15:52:00,48.0,45.0,30.03,North,355,0.0,2.0,90,0.00,,,0.61,,2013-03-07 23:52:00,
2013-03-07 16:02:00,48.0,45.0,30.03,NE,38,0.0,2.0,89,0.00,,,0.61,,2013-03-08 00:02:00,
2013-03-07 16:12:00,48.0,45.0,30.03,NE,38,0.0,2.0,89,0.00,,,0.61,,2013-03-08 00:12:00,
2013-03-07 16:22:00,48.0,44.0,30.03,NE,41,0.0,2.0,86,0.00,,,0.61,,2013-03-08 00:22:00,
2013-03-07 16:32:00,48.0,44.0,30.03,NE,41,0.0,2.0,87,0.00,,,0.56,,2013-03-08 00:32:00,
2013-03-07 16:43:00,48.0,44.0,30.03,NE,41,0.0,2.0,87,0.00,,,0.56,,2013-03-08 00:43:00,
2013-03-07 16:52:00,48.0,44.0,30.03,NE,41,0.0,2.0,85,0.00,,,0.56,,2013-03-08 00:52:00,
2013-03-07 17:01:00,48.0,44.0,30.03,NE,41,0.0,2.0,85,0.00,,,0.56,,2013-03-08 01:01:00,
2013-03-07 17:11:00,48.0,44.0,30.03,NE,41,0.0,2.0,85,0.00,,,0.56,,2013-03-08 01:11:00,
2013-03-07 17:21:00,48.0,43.0,30.03,ENE,71,0.0,2.0,84,0.00,,,0.56,,2013-03-08 01:21:00,
2013-03-07 17:32:00,47.0,43.0,30.03,ENE,71,0.0,1.0,86,0.00,,,0.54,,2013-03-08 01:32:00,
2013-03-07 17:42:00,47.0,43.0,30.03,ENE,71,0.0,1.0,86,0.00,,,0.54,,2013-03-08 01:42:00,
2013-03-07 17:51:00,47.0,43.0,30.03,ENE,71,0.0,1.0,87,0.00,,,0.54,,2013-03-08 01:51:00,
2013-03-07 18:01:00,47.0,43.0,30.03,ENE,71,0.0,0.0,87,0.00,,,0.54,,2013-03-08 02:01:00,
2013-03-07 18:11:00,46.0,42.0,30.03,ENE,71,0.0,0.0,86,0.00,,,0.54,,2013-03-08 02:11:00,
2013-03-07 18:21:00,46.0,42.0,30.03,ENE,71,0.0,0.0,86,0.00,,,0.54,,2013-03-08 02:21:00,
2013-03-07 18:31:00,44.0,40.0,30.03,ENE,71,0.0,0.0,86,0.00,,,0.49,,2013-03-08 02:31:00,
2013-03-07 18:41:00,44.0,40.0,30.03,ENE,71,0.0,0.0,86,0.00,,,0.49,,2013-03-08 02:41:00,
2013-03-07 18:52:00,43.0,39.0,30.04,ENE,71,0.0,0.0,87,0.00,,,0.49,,2013-03-08 02:52:00,
2013-03-07 19:01:00,41.0,37.0,30.04,ENE,71,0.0,0.0,87,0.00,,,0.49,,2013-03-08 03:01:00,
2013-03-07 19:11:00,41.0,37.0,30.04,ENE,71,0.0,0.0,87,0.00,,,0.49,,2013-03-08 03:11:00,
2013-03-07 19:32:00,39.0,37.0,30.04,ENE,71,0.0,1.0,91,0.00,,,0.45,,2013-03-08 03:32:00,
2013-03-07 19:42:00,39.0,37.0,30.04,ENE,71,0.0,1.0,91,0.00,,,0.45,,2013-03-08 03:42:00,
2013-03-07 19:52:00,38.0,36.0,30.05,ENE,71,0.0,0.0,93,0.00,,,0.45,,2013-03-08 03:52:00,
2013-03-07 20:01:00,38.0,36.0,30.04,ENE,71,0.0,1.0,93,0.00,,,0.45,,2013-03-08 04:01:00,
2013-03-07 20:11:00,38.0,36.0,30.04,ENE,71,0.0,1.0,93,0.00,,,0.45,,2013-03-08 04:11:00,
2013-03-07 20:21:00,37.0,35.0,30.04,ENE,71,0.0,1.0,94,0.00,,,0.45,,2013-03-08 04:21:00,
2013-03-07 20:31:00,37.0,35.0,30.05,ENE,71,0.0,0.0,94,0.00,,,0.40,,2013-03-08 04:31:00,
2013-03-07 20:42:00,37.0,35.0,30.05,ENE,71,0.0,0.0,94,0.00,,,0.40,,2013-03-08 04:42:00,
2013-03-07 20:51:00,36.0,34.0,30.06,ENE,71,0.0,2.0,94,0.00,,,0.40,,2013-03-08 04:51:00,
2013-03-07 21:01:00,36.0,34.0,30.06,ENE,71,0.0,0.0,94,0.00,,,0.40,,2013-03-08 05:01:00,
2013-03-07 21:12:00,36.0,34.0,30.06,ENE,71,0.0,0.0,94,0.00,,,0.40,,2013-03-08 05:12:00,
2013-03-07 21:21:00,34.0,32.0,30.07,ENE,71,0.0,0.0,93,0.00,,,0.35,,2013-03-08 05:21:00,
2013-03-07 21:22:00,35.0,33.0,30.06,ENE,71,0.0,0.0,94,0.00,,,0.40,,2013-03-08 05:22:00,
2013-03-07 21:32:00,34.0,32.0,30.06,ENE,71,0.0,1.0,94,0.00,,,0.35,,2013-03-08 05:32:00,
2013-03-07 21:42:00,34.0,32.0,30.06,ENE,71,0.0,1.0,94,0.00,,,0.35,,2013-03-08 05:42:00,
2013-03-07 21:52:00,34.0,32.0,30.07,ENE,71,0.0,0.0,93,0.00,,,0.35,,2013-03-08 05:52:00,
2013-03-07 22:01:00,34.0,32.0,30.07,ENE,71,0.0,0.0,93,0.00,,,0.35,,2013-03-08 06:01:00,
2013-03-07 22:11:00,34.0,32.0,30.07,ENE,71,0.0,0.0,93,0.00,,,0.35,,2013-03-08 06:11:00,
2013-03-07 22:32:00,33.0,31.0,30.07,ENE,71,0.0,0.0,94,0.00,,,0.32,,2013-03-08 06:32:00,
2013-03-07 22:42:00,33.0,31.0,30.07,ENE,71,0.0,0.0,94,0.00,,,0.32,,2013-03-08 06:42:00,
2013-03-07 22:52:00,32.0,30.0,30.07,ENE,71,0.0,0.0,94,0.00,,,0.32,,2013-03-08 06:52:00,
2013-03-07 23:01:00,32.0,30.0,30.07,ENE,71,0.0,0.0,94,0.00,,,0.32,,2013-03-08 07:01:00,
2013-03-07 23:11:00,32.0,30.0,30.07,ENE,71,0.0,0.0,94,0.00,,,0.32,,2013-03-08 07:11:00,
2013-03-07 23:21:00,32.0,31.0,30.07,ENE,71,0.0,0.0,95,0.00,,,0.32,,2013-03-08 07:21:00,
2013-03-07 23:31:00,32.0,31.0,30.07,ENE,71,0.0,1.0,95,0.00,,,0.30,,2013-03-08 07:31:00,
2013-03-07 23:41:00,32.0,31.0,30.07,ENE,71,0.0,1.0,95,0.00,,,0.30,,2013-03-08 07:41:00,
2013-03-07 23:51:00,32.0,31.0,30.07,ENE,71,0.0,0.0,95,0.00,,,0.30,,2013-03-08 07:51:00,